Погода в Каллифее

Греция     40°04′28″N   23°26′52″E
темп.,
°C
ветер,
м/с
пор.,
м/с
влажн.,
%
обл.,
%
осадки,
мм/ч
давл.,
гПа
погр.,
м
17 июня, чт
чт1700:00+22вюв22737 0.1 101425
03:00+21в34785 0.1 101583
06:00+21всв22785 0.0 101537
09:00+23всв226342 0.0 1017348
12:00+25юв22555 0.0 1017827
15:00+26ююв435462 0.0 1017788
18:00+25ююв545694 0.0 1016462
21:00+22юв34732 0.2 1016149
18 июня, пт
пт1800:00+21в11774 0.3 101715
03:00+21сз117766 0.8 101621
06:00+20зсз348274 0.3 1016126
09:00+22зсз347311 0.3 1016298
12:00+24зсз33635 0.0 1016438
15:00+26зсз22564 0.0 1014557
18:00+26ю2155100 0.0 1012432
21:00+23ююв2270100 0.0 101240
19 июня, сб
сб1900:00+22юв2378100 0.3 101467
03:00+21вюв2483100 0.4 1013199
06:00+21ю118555 0.1 1013102
09:00+23ссв117230 0.6 1014419
12:00+25зюз12655 0.0 1014665
15:00+26ю32605 0.0 1012726
18:00+26ю436326 0.0 1011504
21:00+23ю237597 0.9 1012189
20 июня, вс
вс2000:00+21ююв11836 1.3 101341
03:00+21сз00820 1.3 101217
06:00+21ссз22844 0.0 101282
09:00+23ссз23775 0.0 1013361
12:00+25ссв11660 0.0 1013620
15:00+26ююв32636 0.1 1012903
18:00+24вюв557126 0.7 1011446
21:00+23в11782 0.8 1011130
21 июня, пн
пн2100:00+22вюв23822 0.1 1012135
03:00+21в11810 0.4 101242
06:00+21ссз11830 0.0 101326
09:00+23сз11740 0.0 1013257
12:00+26ссз01644 0.0 1014571
15:00+27ююз32563 0.0 1013804
18:00+27ююв43586 0.0 1012487
21:00+24ююв237114 0.0 1012128